Regional Weather Roundup
Issued by NWS Albany, NY

Home | Current Version | Previous Version | Text Only | Print | Product List | Glossary On
Versions: 1 2 3 4 5 6 7 8 9 10 11 12 13 14 15 16 17 18 19 20 21 22 23 24 25 26 27 28 29 30 31 32 33 34 35 36 37 38 39 40 41 42 43 44 45 46 47 48 49 50
000
ASUS41 KALY 150410
RWRALY

NEW YORK STATE HOURLY WEATHER ROUNDUP
NATIONAL WEATHER SERVICE ALBANY NY
1200 AM EDT MON SEP 15 2014

NOTE: "FAIR" INDICATES FEW OR NO CLOUDS BELOW 12,000 FEET WITH NO
SIGNIFICANT WEATHER AND/OR NO OBSTRUCTIONS TO VISIBILITY.

NYZ032-033-038>043-046>054-057>066-NYZ062>081-150500-
EAST


CITY           SKY/WX    TMP DP  RH WIND       PRES   REMARKS
ALBANY         PTCLDY    47  44  90 CALM      30.24S
GLENS FALLS    CLOUDY    48  44  86 CALM      30.24F
POUGHKEEPSIE   CLEAR     46  43  89 NE3       30.22S
NEWBURGH       CLEAR     48  46  93 CALM      30.23S
MONTGOMERY     CLEAR     46  44  93 CALM      30.22S
WHITE PLAINS   CLEAR     51  45  79 NW6       30.19F
ISLIP          PTCLDY    55  50  83 CALM      30.18F
NEW YORK CITY  PTCLDY    63  49  60 CALM      30.18F
CENTRAL PARK   CLEAR     60  48  64 NE6       30.21F
$$

NYZ005>009-017-018-044>046-055-056-150500-
CENTRAL


CITY           SKY/WX    TMP DP  RH WIND       PRES   REMARKS
FULTON         CLOUDY    46  42  86 CALM      30.24S
SYRACUSE       CLOUDY    51  46  83 CALM      30.25R
ROME           PTCLDY    41  40  96 SE5       30.26S
ELMIRA         CLOUDY    50  47  89 CALM      30.24R
BINGHAMTON     CLOUDY    48  43  82 E7        30.22F
MONTICELLO     CLEAR     45  43  93 N6        30.23F
$$

NYZ026>034-041>043-150500-
NORTH


CITY           SKY/WX    TMP DP  RH WIND       PRES   REMARKS
WATERTOWN      CLEAR     40  36  86 CALM      30.24S
FORT DRUM      NOT AVBL
MASSENA        CLEAR     36  35  96 CALM      30.25S
SARANAC LAKE   CLOUDY    31  30  96 CALM      30.21F FOG
PLATTSBURGH    CLEAR     39  38  96 W3        30.25S
$$

NYZ001>004-010>016-019>021-150500-
WEST


CITY           SKY/WX    TMP DP  RH WIND       PRES   REMARKS
NIAGARA FALLS  CLOUDY    51  47  86 E3        30.21F
BUFFALO        MOCLDY    54  45  71 SE5       30.22F
DUNKIRK        CLOUDY    52  47  83 S3        30.22F
JAMESTOWN      CLOUDY    48  45  87 CALM      30.23S
WELLSVILLE     MOCLDY    46  42  86 CALM      30.25S
ROCHESTER      MOCLDY    50  44  80 CALM      30.24R
PENN YAN       CLOUDY    52  46  80 CALM      30.24F
$$

             KEY
       WCI = WIND CHILL INDEX
       VSB = VISIBILITY
       HX  = HEAT INDEX
$$



USA.gov is the U.S. government's official web portal to all federal, state and local government web resources and services.